NOAA 15 1 25338U 98030A 24109.90002097 .00000591 00000-0 26295-3 0 9996 2 25338 98.5744 138.2515 0011299 134.3348 225.8761 14.26538677348738 METEOSAT 8 (MSG 1) 1 27509U 02040B 24109.09849720 -.00000163 00000-0 00000-0 0 9995 2 27509 9.6967 47.0006 0016321 52.1501 111.7736 0.97905500 79205 KALPANA 1 (METSAT 1) 1 27525U 02043A 24109.86451193 -.00000064 00000-0 00000-0 0 9994 2 27525 11.7428 38.3704 0006648 103.4325 118.7674 0.98337215 78729 NOAA 18 1 28654U 05018A 24109.87715074 .00000509 00000-0 29559-3 0 9991 2 28654 98.8753 187.3330 0013560 227.9501 132.0518 14.13171450974796 METEOSAT 9 (MSG 2) 1 28912U 05049B 24109.54326522 .00000126 00000-0 00000-0 0 9994 2 28912 7.5520 61.3518 0001699 320.0745 67.0237 1.00275962 67137 HIMAWARI 7 1 28937U 06004A 24109.91223906 -.00000089 00000-0 00000-0 0 9995 2 28937 3.7403 82.4039 0004450 146.5213 47.7585 0.99074680 66404 FORMOSAT 3A 1 29047U 06011A 24109.48990915 .00001007 00000-0 40197-3 0 9993 2 29047 71.9752 128.7092 0049136 166.6956 193.5490 14.29895524941448 FORMOSAT 3B 1 29048U 06011B 24109.89442315 .00001559 00000-0 61604-3 0 9993 2 29048 71.9682 37.2006 0041651 126.4131 234.0858 14.29864543943979 FORMOSAT 3C 1 29049U 06011C 24109.68083356 .00001592 00000-0 62976-3 0 9997 2 29049 72.0202 217.2380 0033424 141.1498 219.2052 14.29930443939748 FORMOSAT 3D 1 29050U 06011D 24109.69585812 .00004508 00000-0 89024-3 0 9997 2 29050 72.0158 217.4447 0048861 293.3473 66.2545 14.62126650960790 FORMOSAT 3E 1 29051U 06011E 24109.42463868 .00001686 00000-0 65308-3 0 9998 2 29051 72.0017 117.0329 0066567 19.2097 341.1527 14.30005684942297 FORMOSAT 3F 1 29052U 06011F 24109.67724320 .00001361 00000-0 53786-3 0 9996 2 29052 72.0341 194.9340 0037809 94.6615 265.8842 14.30096166939838 GOES 13 1 29155U 06018A 24109.91598104 -.00000232 00000-0 00000-0 0 9998 2 29155 2.4717 85.9304 0087222 253.3343 318.4177 0.99153954 35440 METOP-A 1 29499U 06044A 24109.93451177 .00004932 00000-0 62479-3 0 9999 2 29499 98.3584 183.5774 0190291 56.4393 56.6457 14.70263031909221 FENGYUN 2D 1 29640U 06053A 24109.58839105 -.00000038 00000-0 00000-0 0 9992 2 29640 9.4441 46.5970 0011262 20.4997 218.0046 0.98192899 63240 FENGYUN 3A 1 32958U 08026A 24109.87676509 .00000497 00000-0 25812-3 0 9998 2 32958 98.5992 58.7276 0007660 241.0926 118.9483 14.19057047823431 FENGYUN 2E 1 33463U 08066A 24109.80856260 -.00000181 00000-0 00000-0 0 9991 2 33463 7.4501 61.0270 0002129 14.7645 2.2604 0.99121147 56183 NOAA 19 1 33591U 09005A 24109.89113240 .00000489 00000-0 28631-3 0 9993 2 33591 99.0527 165.0502 0014899 99.7120 260.5735 14.12971981782999 GOES 14 1 35491U 09033A 24109.87060972 -.00000069 00000-0 00000-0 0 9998 2 35491 0.2007 111.4731 0003135 307.9232 352.9010 1.00271298 54198 METEOR-M 1 35865U 09049A 24109.50360383 .00000433 00000-0 21297-3 0 9997 2 35865 98.6279 72.0301 0003441 80.3269 279.8298 14.22671089756949 GOES 15 1 36411U 10008A 24109.82410576 .00000034 00000-0 00000-0 0 9990 2 36411 0.1457 91.0822 0001988 197.5128 276.7834 1.00274961 51727 COMS 1 1 36744U 10032A 24109.81154988 -.00000346 00000-0 00000-0 0 9994 2 36744 2.7771 85.2208 0001051 286.7714 255.6842 1.00277221 43176 FENGYUN 3B 1 37214U 10059A 24109.93164715 .00000297 00000-0 17859-3 0 9995 2 37214 99.0608 137.1829 0021123 259.5378 164.0450 14.14472455695838 NPP 1 37849U 11061A 24109.90661032 .00000327 00000-0 17602-3 0 9994 2 37849 98.7184 48.7873 0001719 84.3818 275.7554 14.19548509646464 FENGYUN 2F 1 38049U 12002A 24109.91441462 -.00000356 00000-0 00000-0 0 9991 2 38049 5.4485 73.6960 0002763 55.3373 159.6910 1.00268601 44965 METEOSAT 10 (MSG 3) 1 38552U 12035B 24109.89910627 -.00000008 00000-0 00000-0 0 9991 2 38552 2.8336 60.4662 0002362 288.6097 182.2679 1.00268146 42946 METOP-B 1 38771U 12049A 24109.90775437 .00000428 00000-0 21516-3 0 9992 2 38771 98.6326 168.4452 0001270 129.4826 230.6464 14.21505944601135 FENGYUN 3C 1 39260U 13052A 24109.96108432 .00000378 00000-0 21152-3 0 9992 2 39260 98.4296 112.7078 0011962 133.5767 226.6404 14.16179308546882 METEOR M2 1 40069U 14037A 24109.95231745 .00000496 00000-0 24813-3 0 9996 2 40069 98.4362 106.8422 0006069 159.1579 200.9847 14.20932043507217 HIMAWARI 8 1 40267U 14060A 24109.92015813 -.00000280 00000-0 00000-0 0 9996 2 40267 0.0262 167.7414 0000982 245.3741 266.2799 1.00269964 34843 FENGYUN 2G 1 40367U 14090A 24109.80022134 -.00000304 00000-0 00000-0 0 9998 2 40367 3.6394 82.1789 0002241 82.1328 70.8908 1.00271889 34088 METEOSAT 11 (MSG 4) 1 40732U 15034A 24109.67933266 .00000062 00000-0 00000-0 0 9995 2 40732 1.2443 67.4122 0000816 236.4310 157.5038 1.00279828 32100 ELEKTRO-L 2 1 41105U 15074A 24109.68799517 -.00000117 00000-0 00000-0 0 9996 2 41105 4.6911 80.1487 0001685 222.4367 137.8146 1.00273753 30582 HIMAWARI 9 1 41836U 16064A 24109.92015813 -.00000279 00000-0 00000-0 0 9993 2 41836 0.0543 70.7411 0000627 319.6284 289.1699 1.00272030 27293 GOES 16 1 41866U 16071A 24109.87722344 -.00000252 00000-0 00000-0 0 9993 2 41866 0.0145 275.5644 0000554 118.6934 53.8049 1.00272555 27180 FENGYUN 4A 1 41882U 16077A 24109.90945433 -.00000203 00000-0 00000-0 0 9993 2 41882 0.3086 82.8119 0008552 344.0628 194.8501 1.00265434 27011 CYGFM05 1 41884U 16078A 24109.62465889 .00015040 00000-0 57830-3 0 9997 2 41884 34.9542 317.7935 0012889 10.2472 349.8504 15.25495275406977 CYGFM04 1 41885U 16078B 24109.90965174 .00017529 00000-0 65628-3 0 9999 2 41885 34.9467 300.6217 0009995 36.0515 324.0873 15.26384037407100 CYGFM02 1 41886U 16078C 24109.94568155 .00017131 00000-0 63513-3 0 9992 2 41886 34.9558 302.7750 0013253 26.8524 333.2875 15.26675144407191 CYGFM01 1 41887U 16078D 24109.85751335 .00015682 00000-0 60782-3 0 9991 2 41887 34.9509 320.0096 0013104 5.4016 354.6838 15.25220213406948 CYGFM08 1 41888U 16078E 24109.91371586 .00016901 00000-0 63643-3 0 9999 2 41888 34.9460 308.4111 0013140 27.8073 332.3342 15.26165171407120 CYGFM06 1 41889U 16078F 24109.67357198 .00214541 00000-0 23085-2 0 9991 2 41889 34.9493 250.7981 0011173 77.8494 282.3483 15.61988090407635 CYGFM07 1 41890U 16078G 24109.90336730 .00017290 00000-0 64546-3 0 9998 2 41890 34.9485 300.1095 0009686 34.9978 325.1373 15.26485214407119 CYGFM03 1 41891U 16078H 24109.86948275 .00016815 00000-0 62880-3 0 9998 2 41891 34.9530 301.4456 0011206 20.9685 339.1488 15.26418823407098